Time,TemperatureF,DewpointF,PressureIn,WindDirection,WindDirectionDegrees,WindSpeedMPH,WindSpeedGustMPH,Humidity,HourlyPrecipIn,Conditions,Clouds,dailyrainin,SoftwareType,DateUTC
2013-09-03 00:01:00,79.5,72.0,29.48,North,-999,-999.0,-999.0,79,-99.99,,,-99.99,,2013-09-03 04:01:00,
2013-09-03 00:02:00,79.5,72.0,29.48,North,-999,-999.0,-999.0,79,-99.99,,,-99.99,,2013-09-03 04:02:00,
2013-09-03 00:07:00,79.5,72.1,29.48,North,-999,-999.0,-999.0,79,-99.99,,,-99.99,,2013-09-03 04:07:00,
2013-09-03 00:12:00,79.5,72.2,29.48,North,-999,-999.0,-999.0,79,-99.99,,,-99.99,,2013-09-03 04:12:00,
2013-09-03 00:17:00,79.3,72.2,29.48,North,-999,-999.0,-999.0,80,-99.99,,,-99.99,,2013-09-03 04:17:00,
2013-09-03 00:22:00,79.1,72.2,29.47,North,-999,-999.0,-999.0,80,-99.99,,,-99.99,,2013-09-03 04:22:00,
2013-09-03 00:27:00,78.9,71.9,29.47,North,-999,-999.0,-999.0,80,-99.99,,,-99.99,,2013-09-03 04:27:00,
2013-09-03 00:32:00,78.8,72.0,29.47,North,-999,-999.0,-999.0,80,-99.99,,,-99.99,,2013-09-03 04:32:00,
2013-09-03 00:37:00,78.8,72.0,29.48,North,-999,-999.0,-999.0,81,-99.99,,,-99.99,,2013-09-03 04:37:00,
2013-09-03 00:42:00,78.8,72.2,29.48,North,-999,-999.0,-999.0,81,-99.99,,,-99.99,,2013-09-03 04:42:00,
2013-09-03 00:47:00,78.8,72.3,29.48,North,-999,-999.0,-999.0,81,-99.99,,,-99.99,,2013-09-03 04:47:00,
2013-09-03 00:52:00,78.8,72.4,29.48,North,-999,-999.0,-999.0,82,-99.99,,,-99.99,,2013-09-03 04:52:00,
2013-09-03 00:57:00,78.6,72.0,29.48,North,-999,-999.0,-999.0,81,-99.99,,,-99.99,,2013-09-03 04:57:00,
2013-09-03 01:02:00,78.6,72.1,29.48,North,-999,-999.0,-999.0,81,-99.99,,,-99.99,,2013-09-03 05:02:00,
2013-09-03 01:07:00,78.6,72.0,29.48,North,-999,-999.0,-999.0,81,-99.99,,,-99.99,,2013-09-03 05:07:00,
2013-09-03 01:12:00,78.6,71.8,29.48,North,-999,-999.0,-999.0,80,-99.99,,,-99.99,,2013-09-03 05:12:00,
2013-09-03 01:17:00,78.6,71.8,29.48,North,-999,-999.0,-999.0,80,-99.99,,,-99.99,,2013-09-03 05:17:00,
2013-09-03 01:22:00,78.4,71.4,29.48,North,-999,-999.0,-999.0,80,-99.99,,,-99.99,,2013-09-03 05:22:00,
2013-09-03 01:27:00,78.6,71.4,29.49,North,-999,-999.0,-999.0,80,-99.99,,,-99.99,,2013-09-03 05:27:00,
2013-09-03 01:32:00,78.6,71.6,29.49,North,-999,-999.0,-999.0,80,-99.99,,,-99.99,,2013-09-03 05:32:00,
2013-09-03 01:37:00,78.6,71.6,29.49,North,-999,-999.0,-999.0,80,-99.99,,,-99.99,,2013-09-03 05:37:00,
2013-09-03 01:42:00,78.4,71.3,29.49,North,-999,-999.0,-999.0,80,-99.99,,,-99.99,,2013-09-03 05:42:00,
2013-09-03 01:47:00,78.4,71.4,29.49,North,-999,-999.0,-999.0,80,-99.99,,,-99.99,,2013-09-03 05:47:00,
2013-09-03 01:52:00,78.0,71.1,29.49,North,-999,-999.0,-999.0,80,-99.99,,,-99.99,,2013-09-03 05:52:00,
2013-09-03 01:57:00,77.9,71.2,29.49,North,-999,-999.0,-999.0,81,-99.99,,,-99.99,,2013-09-03 05:57:00,
2013-09-03 02:02:00,77.7,71.1,29.49,North,-999,-999.0,-999.0,81,-99.99,,,-99.99,,2013-09-03 06:02:00,
2013-09-03 02:07:00,77.7,71.2,29.50,North,-999,-999.0,-999.0,81,-99.99,,,-99.99,,2013-09-03 06:07:00,
2013-09-03 02:12:00,77.7,71.0,29.49,North,-999,-999.0,-999.0,81,-99.99,,,-99.99,,2013-09-03 06:12:00,
2013-09-03 02:17:00,77.5,70.3,29.49,North,-999,-999.0,-999.0,79,-99.99,,,-99.99,,2013-09-03 06:17:00,
2013-09-03 02:22:00,77.5,69.7,29.49,North,-999,-999.0,-999.0,78,-99.99,,,-99.99,,2013-09-03 06:22:00,
2013-09-03 02:27:00,77.5,69.5,29.49,North,-999,-999.0,-999.0,77,-99.99,,,-99.99,,2013-09-03 06:27:00,
2013-09-03 02:32:00,77.5,69.1,29.49,North,-999,-999.0,-999.0,76,-99.99,,,-99.99,,2013-09-03 06:32:00,
2013-09-03 02:37:00,77.5,69.2,29.49,North,-999,-999.0,-999.0,76,-99.99,,,-99.99,,2013-09-03 06:37:00,
2013-09-03 02:42:00,77.3,68.9,29.49,North,-999,-999.0,-999.0,76,-99.99,,,-99.99,,2013-09-03 06:42:00,
2013-09-03 02:47:00,77.3,68.9,29.49,North,-999,-999.0,-999.0,76,-99.99,,,-99.99,,2013-09-03 06:47:00,
2013-09-03 02:52:00,77.1,69.0,29.49,North,-999,-999.0,-999.0,77,-99.99,,,-99.99,,2013-09-03 06:52:00,
2013-09-03 02:57:00,77.0,69.0,29.49,North,-999,-999.0,-999.0,77,-99.99,,,-99.99,,2013-09-03 06:57:00,
2013-09-03 03:02:00,76.8,68.9,29.50,North,-999,-999.0,-999.0,77,-99.99,,,-99.99,,2013-09-03 07:02:00,
2013-09-03 03:07:00,76.6,68.4,29.50,North,-999,-999.0,-999.0,77,-99.99,,,-99.99,,2013-09-03 07:07:00,
2013-09-03 03:12:00,76.6,68.7,29.50,North,-999,-999.0,-999.0,77,-99.99,,,-99.99,,2013-09-03 07:12:00,
2013-09-03 03:17:00,76.4,68.2,29.50,North,-999,-999.0,-999.0,77,-99.99,,,-99.99,,2013-09-03 07:17:00,
2013-09-03 03:22:00,76.2,68.2,29.50,North,-999,-999.0,-999.0,77,-99.99,,,-99.99,,2013-09-03 07:22:00,
2013-09-03 03:27:00,76.1,68.1,29.50,North,-999,-999.0,-999.0,77,-99.99,,,-99.99,,2013-09-03 07:27:00,
2013-09-03 03:32:00,76.1,68.2,29.50,North,-999,-999.0,-999.0,77,-99.99,,,-99.99,,2013-09-03 07:32:00,
2013-09-03 03:37:00,76.1,68.1,29.50,North,-999,-999.0,-999.0,77,-99.99,,,-99.99,,2013-09-03 07:37:00,
2013-09-03 03:42:00,76.1,68.2,29.50,North,-999,-999.0,-999.0,78,-99.99,,,-99.99,,2013-09-03 07:42:00,
2013-09-03 03:47:00,75.7,67.8,29.50,North,-999,-999.0,-999.0,77,-99.99,,,-99.99,,2013-09-03 07:47:00,
2013-09-03 03:52:00,75.9,68.0,29.50,North,-999,-999.0,-999.0,77,-99.99,,,-99.99,,2013-09-03 07:52:00,
2013-09-03 03:57:00,76.1,68.1,29.51,North,-999,-999.0,-999.0,77,-99.99,,,-99.99,,2013-09-03 07:57:00,
2013-09-03 04:02:00,76.1,68.0,29.51,North,-999,-999.0,-999.0,77,-99.99,,,-99.99,,2013-09-03 08:02:00,
2013-09-03 04:07:00,76.2,68.0,29.50,North,-999,-999.0,-999.0,77,-99.99,,,-99.99,,2013-09-03 08:07:00,
2013-09-03 04:12:00,76.4,68.2,29.50,North,-999,-999.0,-999.0,77,-99.99,,,-99.99,,2013-09-03 08:12:00,
2013-09-03 04:17:00,76.4,68.3,29.51,North,-999,-999.0,-999.0,77,-99.99,,,-99.99,,2013-09-03 08:17:00,
2013-09-03 04:22:00,76.2,68.1,29.51,North,-999,-999.0,-999.0,77,-99.99,,,-99.99,,2013-09-03 08:22:00,
2013-09-03 04:27:00,76.2,68.2,29.51,North,-999,-999.0,-999.0,77,-99.99,,,-99.99,,2013-09-03 08:27:00,
2013-09-03 04:32:00,76.2,68.1,29.51,North,-999,-999.0,-999.0,77,-99.99,,,-99.99,,2013-09-03 08:32:00,
2013-09-03 04:37:00,76.2,68.1,29.51,North,-999,-999.0,-999.0,77,-99.99,,,-99.99,,2013-09-03 08:37:00,
2013-09-03 04:42:00,76.2,68.1,29.51,North,-999,-999.0,-999.0,77,-99.99,,,-99.99,,2013-09-03 08:42:00,
2013-09-03 04:47:00,76.2,68.1,29.52,North,-999,-999.0,-999.0,77,-99.99,,,-99.99,,2013-09-03 08:47:00,
2013-09-03 04:52:00,76.2,68.2,29.52,North,-999,-999.0,-999.0,77,-99.99,,,-99.99,,2013-09-03 08:52:00,
2013-09-03 04:57:00,76.2,68.4,29.53,North,-999,-999.0,-999.0,78,-99.99,,,-99.99,,2013-09-03 08:57:00,
2013-09-03 05:02:00,76.1,68.3,29.53,North,-999,-999.0,-999.0,78,-99.99,,,-99.99,,2013-09-03 09:02:00,
2013-09-03 05:07:00,76.2,68.4,29.53,North,-999,-999.0,-999.0,78,-99.99,,,-99.99,,2013-09-03 09:07:00,
2013-09-03 05:12:00,76.1,68.3,29.53,North,-999,-999.0,-999.0,78,-99.99,,,-99.99,,2013-09-03 09:12:00,
2013-09-03 05:17:00,76.2,68.4,29.53,North,-999,-999.0,-999.0,78,-99.99,,,-99.99,,2013-09-03 09:17:00,
2013-09-03 05:22:00,76.2,68.4,29.53,North,-999,-999.0,-999.0,78,-99.99,,,-99.99,,2013-09-03 09:22:00,
2013-09-03 05:27:00,76.2,68.4,29.53,North,-999,-999.0,-999.0,78,-99.99,,,-99.99,,2013-09-03 09:27:00,
2013-09-03 05:32:00,75.9,68.3,29.54,North,-999,-999.0,-999.0,78,-99.99,,,-99.99,,2013-09-03 09:32:00,
2013-09-03 05:37:00,75.7,68.3,29.54,North,-999,-999.0,-999.0,79,-99.99,,,-99.99,,2013-09-03 09:37:00,
2013-09-03 05:42:00,75.5,68.2,29.54,North,-999,-999.0,-999.0,79,-99.99,,,-99.99,,2013-09-03 09:42:00,
2013-09-03 05:47:00,75.3,67.9,29.54,North,-999,-999.0,-999.0,79,-99.99,,,-99.99,,2013-09-03 09:47:00,
2013-09-03 05:52:00,75.3,67.6,29.54,North,-999,-999.0,-999.0,78,-99.99,,,-99.99,,2013-09-03 09:52:00,
2013-09-03 05:57:00,75.3,67.4,29.54,North,-999,-999.0,-999.0,77,-99.99,,,-99.99,,2013-09-03 09:57:00,
2013-09-03 06:02:00,75.3,67.2,29.54,North,-999,-999.0,-999.0,77,-99.99,,,-99.99,,2013-09-03 10:02:00,
2013-09-03 06:07:00,75.3,67.2,29.54,North,-999,-999.0,-999.0,77,-99.99,,,-99.99,,2013-09-03 10:07:00,
2013-09-03 06:12:00,75.3,67.3,29.55,North,-999,-999.0,-999.0,77,-99.99,,,-99.99,,2013-09-03 10:12:00,
2013-09-03 06:17:00,75.2,67.1,29.55,North,-999,-999.0,-999.0,77,-99.99,,,-99.99,,2013-09-03 10:17:00,
2013-09-03 06:22:00,75.0,66.8,29.55,North,-999,-999.0,-999.0,77,-99.99,,,-99.99,,2013-09-03 10:22:00,
2013-09-03 06:27:00,74.8,66.6,29.55,North,-999,-999.0,-999.0,77,-99.99,,,-99.99,,2013-09-03 10:27:00,
2013-09-03 06:32:00,74.8,66.7,29.56,North,-999,-999.0,-999.0,77,-99.99,,,-99.99,,2013-09-03 10:32:00,
2013-09-03 06:37:00,74.4,66.3,29.56,North,-999,-999.0,-999.0,77,-99.99,,,-99.99,,2013-09-03 10:37:00,
2013-09-03 06:42:00,74.3,66.4,29.56,North,-999,-999.0,-999.0,77,-99.99,,,-99.99,,2013-09-03 10:42:00,
2013-09-03 06:47:00,74.6,66.8,29.56,North,-999,-999.0,-999.0,78,-99.99,,,-99.99,,2013-09-03 10:47:00,
2013-09-03 06:52:00,74.6,66.8,29.56,North,-999,-999.0,-999.0,78,-99.99,,,-99.99,,2013-09-03 10:52:00,
2013-09-03 06:57:00,74.4,66.6,29.57,North,-999,-999.0,-999.0,78,-99.99,,,-99.99,,2013-09-03 10:57:00,
2013-09-03 07:02:00,74.3,66.6,29.57,North,-999,-999.0,-999.0,78,-99.99,,,-99.99,,2013-09-03 11:02:00,
2013-09-03 07:07:00,74.3,66.7,29.58,North,-999,-999.0,-999.0,78,-99.99,,,-99.99,,2013-09-03 11:07:00,
2013-09-03 07:12:00,74.3,66.8,29.58,North,-999,-999.0,-999.0,78,-99.99,,,-99.99,,2013-09-03 11:12:00,
2013-09-03 07:17:00,74.4,66.6,29.58,North,-999,-999.0,-999.0,78,-99.99,,,-99.99,,2013-09-03 11:17:00,
2013-09-03 07:22:00,74.4,66.6,29.58,North,-999,-999.0,-999.0,78,-99.99,,,-99.99,,2013-09-03 11:22:00,
2013-09-03 07:27:00,74.6,66.7,29.58,North,-999,-999.0,-999.0,78,-99.99,,,-99.99,,2013-09-03 11:27:00,
2013-09-03 07:32:00,75.0,66.7,29.58,North,-999,-999.0,-999.0,76,-99.99,,,-99.99,,2013-09-03 11:32:00,
2013-09-03 07:37:00,75.0,66.1,29.58,North,-999,-999.0,-999.0,75,-99.99,,,-99.99,,2013-09-03 11:37:00,
2013-09-03 07:42:00,75.3,65.4,29.58,North,-999,-999.0,-999.0,72,-99.99,,,-99.99,,2013-09-03 11:42:00,
2013-09-03 07:47:00,75.5,64.8,29.58,North,-999,-999.0,-999.0,70,-99.99,,,-99.99,,2013-09-03 11:47:00,
2013-09-03 07:52:00,75.7,65.1,29.58,North,-999,-999.0,-999.0,70,-99.99,,,-99.99,,2013-09-03 11:52:00,
2013-09-03 07:57:00,76.1,65.3,29.58,North,-999,-999.0,-999.0,70,-99.99,,,-99.99,,2013-09-03 11:57:00,
2013-09-03 08:02:00,76.1,65.7,29.58,North,-999,-999.0,-999.0,71,-99.99,,,-99.99,,2013-09-03 12:02:00,
2013-09-03 08:07:00,76.1,65.8,29.58,North,-999,-999.0,-999.0,71,-99.99,,,-99.99,,2013-09-03 12:07:00,
2013-09-03 08:12:00,76.1,65.7,29.59,North,-999,-999.0,-999.0,71,-99.99,,,-99.99,,2013-09-03 12:12:00,
2013-09-03 08:17:00,76.2,66.0,29.59,North,-999,-999.0,-999.0,71,-99.99,,,-99.99,,2013-09-03 12:17:00,
2013-09-03 08:22:00,76.2,66.1,29.59,North,-999,-999.0,-999.0,71,-99.99,,,-99.99,,2013-09-03 12:22:00,
2013-09-03 08:27:00,76.2,66.1,29.59,North,-999,-999.0,-999.0,71,-99.99,,,-99.99,,2013-09-03 12:27:00,
2013-09-03 08:32:00,76.1,65.9,29.59,North,-999,-999.0,-999.0,71,-99.99,,,-99.99,,2013-09-03 12:32:00,
2013-09-03 08:37:00,75.9,65.7,29.60,North,-999,-999.0,-999.0,71,-99.99,,,-99.99,,2013-09-03 12:37:00,
2013-09-03 08:42:00,75.7,65.6,29.60,North,-999,-999.0,-999.0,71,-99.99,,,-99.99,,2013-09-03 12:42:00,
2013-09-03 08:47:00,75.7,65.6,29.60,North,-999,-999.0,-999.0,71,-99.99,,,-99.99,,2013-09-03 12:47:00,
2013-09-03 08:52:00,75.9,65.7,29.60,North,-999,-999.0,-999.0,71,-99.99,,,-99.99,,2013-09-03 12:52:00,
2013-09-03 08:57:00,76.1,65.6,29.60,North,-999,-999.0,-999.0,70,-99.99,,,-99.99,,2013-09-03 12:57:00,
2013-09-03 09:02:00,76.6,65.5,29.59,North,-999,-999.0,-999.0,69,-99.99,,,-99.99,,2013-09-03 13:02:00,
2013-09-03 09:07:00,77.0,65.1,29.59,North,-999,-999.0,-999.0,66,-99.99,,,-99.99,,2013-09-03 13:07:00,
2013-09-03 09:12:00,77.1,64.5,29.59,North,-999,-999.0,-999.0,65,-99.99,,,-99.99,,2013-09-03 13:12:00,
2013-09-03 09:17:00,77.3,64.9,29.59,North,-999,-999.0,-999.0,65,-99.99,,,-99.99,,2013-09-03 13:17:00,
2013-09-03 09:22:00,77.5,64.8,29.59,North,-999,-999.0,-999.0,64,-99.99,,,-99.99,,2013-09-03 13:22:00,
2013-09-03 09:27:00,77.7,64.8,29.59,North,-999,-999.0,-999.0,64,-99.99,,,-99.99,,2013-09-03 13:27:00,
2013-09-03 09:32:00,77.7,64.5,29.59,North,-999,-999.0,-999.0,63,-99.99,,,-99.99,,2013-09-03 13:32:00,
2013-09-03 09:37:00,77.5,64.3,29.60,North,-999,-999.0,-999.0,63,-99.99,,,-99.99,,2013-09-03 13:37:00,
2013-09-03 09:42:00,77.5,64.2,29.60,North,-999,-999.0,-999.0,62,-99.99,,,-99.99,,2013-09-03 13:42:00,
2013-09-03 09:47:00,77.7,64.3,29.60,North,-999,-999.0,-999.0,62,-99.99,,,-99.99,,2013-09-03 13:47:00,
2013-09-03 09:52:00,77.5,64.4,29.60,North,-999,-999.0,-999.0,63,-99.99,,,-99.99,,2013-09-03 13:52:00,
2013-09-03 09:57:00,77.3,63.7,29.60,North,-999,-999.0,-999.0,62,-99.99,,,-99.99,,2013-09-03 13:57:00,
2013-09-03 10:03:00,77.1,63.8,29.60,North,-999,-999.0,-999.0,62,-99.99,,,-99.99,,2013-09-03 14:03:00,
2013-09-03 10:08:00,77.3,64.2,29.60,North,-999,-999.0,-999.0,63,-99.99,,,-99.99,,2013-09-03 14:08:00,
2013-09-03 10:13:00,77.5,64.0,29.60,North,-999,-999.0,-999.0,62,-99.99,,,-99.99,,2013-09-03 14:13:00,
2013-09-03 10:18:00,77.7,63.9,29.60,North,-999,-999.0,-999.0,61,-99.99,,,-99.99,,2013-09-03 14:18:00,
2013-09-03 10:23:00,77.9,64.0,29.60,North,-999,-999.0,-999.0,61,-99.99,,,-99.99,,2013-09-03 14:23:00,
2013-09-03 10:28:00,78.4,64.2,29.60,North,-999,-999.0,-999.0,60,-99.99,,,-99.99,,2013-09-03 14:28:00,
2013-09-03 10:33:00,78.8,64.4,29.60,North,-999,-999.0,-999.0,60,-99.99,,,-99.99,,2013-09-03 14:33:00,
2013-09-03 10:38:00,79.1,64.8,29.59,North,-999,-999.0,-999.0,60,-99.99,,,-99.99,,2013-09-03 14:38:00,
2013-09-03 10:43:00,79.1,64.6,29.59,North,-999,-999.0,-999.0,59,-99.99,,,-99.99,,2013-09-03 14:43:00,
2013-09-03 10:48:00,79.1,64.1,29.59,North,-999,-999.0,-999.0,58,-99.99,,,-99.99,,2013-09-03 14:48:00,
2013-09-03 10:53:00,79.3,64.1,29.59,North,-999,-999.0,-999.0,57,-99.99,,,-99.99,,2013-09-03 14:53:00,
2013-09-03 10:58:00,79.5,64.3,29.59,North,-999,-999.0,-999.0,57,-99.99,,,-99.99,,2013-09-03 14:58:00,
2013-09-03 11:03:00,79.5,64.3,29.59,North,-999,-999.0,-999.0,57,-99.99,,,-99.99,,2013-09-03 15:03:00,
2013-09-03 11:08:00,79.7,64.6,29.59,North,-999,-999.0,-999.0,57,-99.99,,,-99.99,,2013-09-03 15:08:00,
2013-09-03 11:13:00,79.7,64.6,29.59,North,-999,-999.0,-999.0,58,-99.99,,,-99.99,,2013-09-03 15:13:00,
2013-09-03 11:18:00,79.5,64.4,29.59,North,-999,-999.0,-999.0,57,-99.99,,,-99.99,,2013-09-03 15:18:00,
2013-09-03 11:23:00,79.5,64.6,29.59,North,-999,-999.0,-999.0,58,-99.99,,,-99.99,,2013-09-03 15:23:00,
2013-09-03 11:28:00,79.5,64.4,29.59,North,-999,-999.0,-999.0,58,-99.99,,,-99.99,,2013-09-03 15:28:00,
2013-09-03 11:33:00,79.3,64.3,29.59,North,-999,-999.0,-999.0,58,-99.99,,,-99.99,,2013-09-03 15:33:00,
2013-09-03 11:38:00,79.3,64.4,29.59,North,-999,-999.0,-999.0,58,-99.99,,,-99.99,,2013-09-03 15:38:00,
2013-09-03 11:43:00,79.3,64.0,29.59,North,-999,-999.0,-999.0,57,-99.99,,,-99.99,,2013-09-03 15:43:00,
2013-09-03 11:48:00,79.5,64.4,29.59,North,-999,-999.0,-999.0,57,-99.99,,,-99.99,,2013-09-03 15:48:00,
2013-09-03 11:53:00,79.5,64.7,29.59,North,-999,-999.0,-999.0,58,-99.99,,,-99.99,,2013-09-03 15:53:00,
2013-09-03 11:58:00,79.3,64.4,29.59,North,-999,-999.0,-999.0,58,-99.99,,,-99.99,,2013-09-03 15:58:00,
2013-09-03 12:03:00,79.7,65.0,29.59,North,-999,-999.0,-999.0,58,-99.99,,,-99.99,,2013-09-03 16:03:00,
2013-09-03 12:08:00,79.8,64.2,29.58,North,-999,-999.0,-999.0,56,-99.99,,,-99.99,,2013-09-03 16:08:00,
2013-09-03 12:13:00,80.0,64.2,29.58,North,-999,-999.0,-999.0,55,-99.99,,,-99.99,,2013-09-03 16:13:00,
2013-09-03 12:18:00,79.7,64.1,29.58,North,-999,-999.0,-999.0,56,-99.99,,,-99.99,,2013-09-03 16:18:00,
2013-09-03 12:23:00,79.5,63.3,29.58,North,-999,-999.0,-999.0,54,-99.99,,,-99.99,,2013-09-03 16:23:00,
2013-09-03 12:28:00,79.5,63.5,29.58,North,-999,-999.0,-999.0,55,-99.99,,,-99.99,,2013-09-03 16:28:00,
2013-09-03 12:33:00,80.0,64.2,29.58,North,-999,-999.0,-999.0,55,-99.99,,,-99.99,,2013-09-03 16:33:00,
2013-09-03 12:38:00,80.6,63.3,29.57,North,-999,-999.0,-999.0,51,-99.99,,,-99.99,,2013-09-03 16:38:00,
2013-09-03 12:43:00,81.3,64.2,29.57,North,-999,-999.0,-999.0,52,-99.99,,,-99.99,,2013-09-03 16:43:00,
2013-09-03 12:48:00,81.6,64.0,29.57,North,-999,-999.0,-999.0,50,-99.99,,,-99.99,,2013-09-03 16:48:00,
2013-09-03 12:53:00,81.8,64.3,29.56,North,-999,-999.0,-999.0,51,-99.99,,,-99.99,,2013-09-03 16:53:00,
2013-09-03 12:58:00,82.4,65.1,29.56,North,-999,-999.0,-999.0,51,-99.99,,,-99.99,,2013-09-03 16:58:00,
2013-09-03 13:03:00,82.5,65.3,29.56,North,-999,-999.0,-999.0,52,-99.99,,,-99.99,,2013-09-03 17:03:00,
2013-09-03 13:08:00,82.5,65.2,29.56,North,-999,-999.0,-999.0,51,-99.99,,,-99.99,,2013-09-03 17:08:00,
2013-09-03 13:13:00,82.5,64.9,29.56,North,-999,-999.0,-999.0,50,-99.99,,,-99.99,,2013-09-03 17:13:00,
2013-09-03 13:18:00,82.7,65.3,29.56,North,-999,-999.0,-999.0,51,-99.99,,,-99.99,,2013-09-03 17:18:00,
2013-09-03 13:23:00,82.9,65.2,29.56,North,-999,-999.0,-999.0,50,-99.99,,,-99.99,,2013-09-03 17:23:00,
2013-09-03 13:28:00,82.9,64.8,29.56,North,-999,-999.0,-999.0,49,-99.99,,,-99.99,,2013-09-03 17:28:00,
2013-09-03 13:33:00,82.7,64.6,29.55,North,-999,-999.0,-999.0,49,-99.99,,,-99.99,,2013-09-03 17:33:00,
2013-09-03 13:38:00,83.1,65.0,29.56,North,-999,-999.0,-999.0,49,-99.99,,,-99.99,,2013-09-03 17:38:00,
2013-09-03 13:43:00,83.1,65.2,29.55,North,-999,-999.0,-999.0,50,-99.99,,,-99.99,,2013-09-03 17:43:00,
2013-09-03 13:48:00,83.3,65.5,29.55,North,-999,-999.0,-999.0,50,-99.99,,,-99.99,,2013-09-03 17:48:00,
2013-09-03 13:53:00,83.4,65.3,29.55,North,-999,-999.0,-999.0,49,-99.99,,,-99.99,,2013-09-03 17:53:00,
2013-09-03 13:58:00,83.3,65.7,29.55,North,-999,-999.0,-999.0,51,-99.99,,,-99.99,,2013-09-03 17:58:00,
2013-09-03 14:03:00,83.4,64.9,29.55,North,-999,-999.0,-999.0,48,-99.99,,,-99.99,,2013-09-03 18:03:00,
2013-09-03 14:08:00,83.8,65.8,29.55,North,-999,-999.0,-999.0,49,-99.99,,,-99.99,,2013-09-03 18:08:00,
2013-09-03 14:13:00,84.2,66.2,29.55,North,-999,-999.0,-999.0,49,-99.99,,,-99.99,,2013-09-03 18:13:00,
2013-09-03 14:18:00,84.3,65.9,29.55,North,-999,-999.0,-999.0,48,-99.99,,,-99.99,,2013-09-03 18:18:00,
2013-09-03 14:23:00,84.3,65.8,29.54,North,-999,-999.0,-999.0,48,-99.99,,,-99.99,,2013-09-03 18:23:00,
2013-09-03 14:28:00,84.3,65.1,29.54,North,-999,-999.0,-999.0,46,-99.99,,,-99.99,,2013-09-03 18:28:00,
2013-09-03 14:33:00,84.3,64.8,29.54,North,-999,-999.0,-999.0,45,-99.99,,,-99.99,,2013-09-03 18:33:00,
2013-09-03 14:38:00,84.5,65.5,29.54,North,-999,-999.0,-999.0,47,-99.99,,,-99.99,,2013-09-03 18:38:00,
2013-09-03 14:43:00,84.7,66.1,29.54,North,-999,-999.0,-999.0,48,-99.99,,,-99.99,,2013-09-03 18:43:00,
2013-09-03 14:48:00,84.9,65.7,29.53,North,-999,-999.0,-999.0,46,-99.99,,,-99.99,,2013-09-03 18:48:00,
2013-09-03 14:53:00,85.1,65.9,29.53,North,-999,-999.0,-999.0,46,-99.99,,,-99.99,,2013-09-03 18:53:00,
2013-09-03 14:58:00,85.2,65.1,29.53,North,-999,-999.0,-999.0,43,-99.99,,,-99.99,,2013-09-03 18:58:00,
2013-09-03 15:03:00,84.9,65.0,29.53,North,-999,-999.0,-999.0,44,-99.99,,,-99.99,,2013-09-03 19:03:00,
2013-09-03 15:08:00,84.3,64.3,29.53,North,-999,-999.0,-999.0,44,-99.99,,,-99.99,,2013-09-03 19:08:00,
2013-09-03 15:13:00,84.2,64.8,29.53,North,-999,-999.0,-999.0,46,-99.99,,,-99.99,,2013-09-03 19:13:00,
2013-09-03 15:18:00,84.2,64.8,29.53,North,-999,-999.0,-999.0,46,-99.99,,,-99.99,,2013-09-03 19:18:00,
2013-09-03 15:23:00,84.3,64.5,29.52,North,-999,-999.0,-999.0,44,-99.99,,,-99.99,,2013-09-03 19:23:00,
2013-09-03 15:28:00,84.7,64.5,29.52,North,-999,-999.0,-999.0,43,-99.99,,,-99.99,,2013-09-03 19:28:00,
2013-09-03 15:33:00,85.1,65.2,29.52,North,-999,-999.0,-999.0,44,-99.99,,,-99.99,,2013-09-03 19:33:00,
2013-09-03 15:38:00,85.2,65.1,29.52,North,-999,-999.0,-999.0,44,-99.99,,,-99.99,,2013-09-03 19:38:00,
2013-09-03 15:43:00,85.2,64.4,29.52,North,-999,-999.0,-999.0,42,-99.99,,,-99.99,,2013-09-03 19:43:00,
2013-09-03 15:48:00,85.2,65.1,29.52,North,-999,-999.0,-999.0,43,-99.99,,,-99.99,,2013-09-03 19:48:00,
2013-09-03 15:53:00,84.9,65.0,29.52,North,-999,-999.0,-999.0,44,-99.99,,,-99.99,,2013-09-03 19:53:00,
2013-09-03 15:58:00,85.1,64.8,29.52,North,-999,-999.0,-999.0,43,-99.99,,,-99.99,,2013-09-03 19:58:00,
2013-09-03 16:03:00,85.1,65.0,29.52,North,-999,-999.0,-999.0,43,-99.99,,,-99.99,,2013-09-03 20:03:00,
2013-09-03 16:08:00,85.1,65.3,29.52,North,-999,-999.0,-999.0,44,-99.99,,,-99.99,,2013-09-03 20:08:00,
2013-09-03 16:13:00,84.9,64.6,29.52,North,-999,-999.0,-999.0,43,-99.99,,,-99.99,,2013-09-03 20:13:00,
2013-09-03 16:18:00,84.7,64.0,29.52,North,-999,-999.0,-999.0,42,-99.99,,,-99.99,,2013-09-03 20:18:00,
2013-09-03 16:23:00,84.3,63.7,29.52,North,-999,-999.0,-999.0,42,-99.99,,,-99.99,,2013-09-03 20:23:00,
2013-09-03 16:28:00,84.0,63.7,29.52,North,-999,-999.0,-999.0,43,-99.99,,,-99.99,,2013-09-03 20:28:00,
2013-09-03 16:33:00,84.0,63.8,29.52,North,-999,-999.0,-999.0,43,-99.99,,,-99.99,,2013-09-03 20:33:00,
2013-09-03 16:38:00,84.0,64.2,29.52,North,-999,-999.0,-999.0,44,-99.99,,,-99.99,,2013-09-03 20:38:00,
2013-09-03 16:43:00,83.8,64.0,29.52,North,-999,-999.0,-999.0,44,-99.99,,,-99.99,,2013-09-03 20:43:00,
2013-09-03 16:48:00,83.8,63.1,29.52,North,-999,-999.0,-999.0,42,-99.99,,,-99.99,,2013-09-03 20:48:00,
2013-09-03 16:53:00,84.0,63.4,29.52,North,-999,-999.0,-999.0,42,-99.99,,,-99.99,,2013-09-03 20:53:00,
2013-09-03 16:58:00,84.0,63.7,29.52,North,-999,-999.0,-999.0,43,-99.99,,,-99.99,,2013-09-03 20:58:00,
2013-09-03 17:03:00,84.0,63.7,29.52,North,-999,-999.0,-999.0,43,-99.99,,,-99.99,,2013-09-03 21:03:00,
2013-09-03 17:08:00,83.8,63.6,29.52,North,-999,-999.0,-999.0,43,-99.99,,,-99.99,,2013-09-03 21:08:00,
2013-09-03 17:13:00,83.8,63.6,29.52,North,-999,-999.0,-999.0,43,-99.99,,,-99.99,,2013-09-03 21:13:00,
2013-09-03 17:18:00,83.8,62.9,29.53,North,-999,-999.0,-999.0,41,-99.99,,,-99.99,,2013-09-03 21:18:00,
2013-09-03 17:23:00,83.4,62.8,29.53,North,-999,-999.0,-999.0,42,-99.99,,,-99.99,,2013-09-03 21:23:00,
2013-09-03 17:28:00,83.6,63.3,29.53,North,-999,-999.0,-999.0,43,-99.99,,,-99.99,,2013-09-03 21:28:00,
2013-09-03 17:33:00,83.6,63.0,29.53,North,-999,-999.0,-999.0,42,-99.99,,,-99.99,,2013-09-03 21:33:00,
2013-09-03 17:38:00,83.4,63.0,29.53,North,-999,-999.0,-999.0,43,-99.99,,,-99.99,,2013-09-03 21:38:00,
2013-09-03 17:43:00,83.1,62.9,29.53,North,-999,-999.0,-999.0,43,-99.99,,,-99.99,,2013-09-03 21:43:00,
2013-09-03 17:48:00,82.7,62.5,29.54,North,-999,-999.0,-999.0,43,-99.99,,,-99.99,,2013-09-03 21:48:00,
2013-09-03 17:53:00,82.5,62.1,29.54,North,-999,-999.0,-999.0,43,-99.99,,,-99.99,,2013-09-03 21:53:00,
2013-09-03 17:58:00,82.4,62.1,29.54,North,-999,-999.0,-999.0,43,-99.99,,,-99.99,,2013-09-03 21:58:00,
2013-09-03 18:03:00,82.4,62.5,29.55,North,-999,-999.0,-999.0,44,-99.99,,,-99.99,,2013-09-03 22:03:00,
2013-09-03 18:08:00,82.2,62.4,29.55,North,-999,-999.0,-999.0,44,-99.99,,,-99.99,,2013-09-03 22:08:00,
2013-09-03 18:13:00,82.0,62.1,29.55,North,-999,-999.0,-999.0,44,-99.99,,,-99.99,,2013-09-03 22:13:00,
2013-09-03 18:18:00,82.0,62.3,29.55,North,-999,-999.0,-999.0,45,-99.99,,,-99.99,,2013-09-03 22:18:00,
2013-09-03 18:23:00,82.2,62.7,29.55,North,-999,-999.0,-999.0,45,-99.99,,,-99.99,,2013-09-03 22:23:00,
2013-09-03 18:28:00,82.0,62.5,29.56,North,-999,-999.0,-999.0,45,-99.99,,,-99.99,,2013-09-03 22:28:00,
2013-09-03 18:33:00,82.0,62.8,29.56,North,-999,-999.0,-999.0,46,-99.99,,,-99.99,,2013-09-03 22:33:00,
2013-09-03 18:38:00,81.8,62.2,29.56,North,-999,-999.0,-999.0,45,-99.99,,,-99.99,,2013-09-03 22:38:00,
2013-09-03 18:44:00,81.6,62.0,29.56,North,-999,-999.0,-999.0,45,-99.99,,,-99.99,,2013-09-03 22:44:00,
2013-09-03 18:49:00,81.5,62.1,29.56,North,-999,-999.0,-999.0,46,-99.99,,,-99.99,,2013-09-03 22:49:00,
2013-09-03 18:54:00,81.3,62.0,29.57,North,-999,-999.0,-999.0,46,-99.99,,,-99.99,,2013-09-03 22:54:00,
2013-09-03 18:59:00,80.9,61.9,29.57,North,-999,-999.0,-999.0,47,-99.99,,,-99.99,,2013-09-03 22:59:00,
2013-09-03 19:04:00,80.6,61.5,29.58,North,-999,-999.0,-999.0,46,-99.99,,,-99.99,,2013-09-03 23:04:00,
2013-09-03 19:09:00,80.2,61.3,29.58,North,-999,-999.0,-999.0,47,-99.99,,,-99.99,,2013-09-03 23:09:00,
2013-09-03 19:14:00,79.8,60.9,29.58,North,-999,-999.0,-999.0,47,-99.99,,,-99.99,,2013-09-03 23:14:00,
2013-09-03 19:19:00,79.7,61.0,29.59,North,-999,-999.0,-999.0,47,-99.99,,,-99.99,,2013-09-03 23:19:00,
2013-09-03 19:24:00,79.5,60.8,29.59,North,-999,-999.0,-999.0,47,-99.99,,,-99.99,,2013-09-03 23:24:00,
2013-09-03 19:29:00,79.3,60.8,29.59,North,-999,-999.0,-999.0,48,-99.99,,,-99.99,,2013-09-03 23:29:00,
2013-09-03 19:34:00,79.1,60.7,29.60,North,-999,-999.0,-999.0,48,-99.99,,,-99.99,,2013-09-03 23:34:00,
2013-09-03 19:39:00,78.8,60.5,29.60,North,-999,-999.0,-999.0,48,-99.99,,,-99.99,,2013-09-03 23:39:00,
2013-09-03 19:44:00,78.6,60.3,29.60,North,-999,-999.0,-999.0,49,-99.99,,,-99.99,,2013-09-03 23:44:00,
2013-09-03 19:49:00,78.4,60.2,29.60,North,-999,-999.0,-999.0,49,-99.99,,,-99.99,,2013-09-03 23:49:00,
2013-09-03 19:54:00,78.2,60.1,29.61,North,-999,-999.0,-999.0,49,-99.99,,,-99.99,,2013-09-03 23:54:00,
2013-09-03 19:59:00,78.2,59.9,29.61,North,-999,-999.0,-999.0,48,-99.99,,,-99.99,,2013-09-03 23:59:00,
2013-09-03 20:04:00,77.9,59.5,29.61,North,-999,-999.0,-999.0,48,-99.99,,,-99.99,,2013-09-04 00:04:00,
2013-09-03 20:09:00,77.9,59.7,29.62,North,-999,-999.0,-999.0,49,-99.99,,,-99.99,,2013-09-04 00:09:00,
2013-09-03 20:14:00,77.7,59.6,29.62,North,-999,-999.0,-999.0,49,-99.99,,,-99.99,,2013-09-04 00:14:00,
2013-09-03 20:19:00,77.5,59.4,29.62,North,-999,-999.0,-999.0,49,-99.99,,,-99.99,,2013-09-04 00:19:00,
2013-09-03 20:24:00,77.3,59.2,29.62,North,-999,-999.0,-999.0,49,-99.99,,,-99.99,,2013-09-04 00:24:00,
2013-09-03 20:29:00,77.1,59.1,29.63,North,-999,-999.0,-999.0,49,-99.99,,,-99.99,,2013-09-04 00:29:00,
2013-09-03 20:34:00,77.1,59.2,29.63,North,-999,-999.0,-999.0,50,-99.99,,,-99.99,,2013-09-04 00:34:00,
2013-09-03 20:39:00,77.0,59.2,29.63,North,-999,-999.0,-999.0,50,-99.99,,,-99.99,,2013-09-04 00:39:00,
2013-09-03 20:44:00,76.6,58.9,29.63,North,-999,-999.0,-999.0,50,-99.99,,,-99.99,,2013-09-04 00:44:00,
2013-09-03 20:49:00,76.6,59.1,29.64,North,-999,-999.0,-999.0,51,-99.99,,,-99.99,,2013-09-04 00:49:00,
2013-09-03 20:54:00,76.2,58.8,29.64,North,-999,-999.0,-999.0,51,-99.99,,,-99.99,,2013-09-04 00:54:00,
2013-09-03 20:59:00,76.1,58.9,29.64,North,-999,-999.0,-999.0,52,-99.99,,,-99.99,,2013-09-04 00:59:00,
2013-09-03 21:04:00,76.1,59.0,29.64,North,-999,-999.0,-999.0,52,-99.99,,,-99.99,,2013-09-04 01:04:00,
2013-09-03 21:09:00,75.9,59.0,29.65,North,-999,-999.0,-999.0,52,-99.99,,,-99.99,,2013-09-04 01:09:00,
2013-09-03 21:14:00,75.5,58.6,29.65,North,-999,-999.0,-999.0,53,-99.99,,,-99.99,,2013-09-04 01:14:00,
2013-09-03 21:19:00,75.5,58.8,29.66,North,-999,-999.0,-999.0,53,-99.99,,,-99.99,,2013-09-04 01:19:00,
2013-09-03 21:24:00,75.3,58.7,29.66,North,-999,-999.0,-999.0,53,-99.99,,,-99.99,,2013-09-04 01:24:00,
2013-09-03 21:29:00,75.2,58.7,29.66,North,-999,-999.0,-999.0,54,-99.99,,,-99.99,,2013-09-04 01:29:00,
2013-09-03 21:34:00,74.8,58.5,29.66,North,-999,-999.0,-999.0,54,-99.99,,,-99.99,,2013-09-04 01:34:00,
2013-09-03 21:39:00,74.6,58.5,29.67,North,-999,-999.0,-999.0,55,-99.99,,,-99.99,,2013-09-04 01:39:00,
2013-09-03 21:44:00,74.3,58.4,29.67,North,-999,-999.0,-999.0,55,-99.99,,,-99.99,,2013-09-04 01:44:00,
2013-09-03 21:49:00,74.1,58.4,29.67,North,-999,-999.0,-999.0,56,-99.99,,,-99.99,,2013-09-04 01:49:00,
2013-09-03 21:54:00,73.9,58.3,29.67,North,-999,-999.0,-999.0,56,-99.99,,,-99.99,,2013-09-04 01:54:00,
2013-09-03 21:59:00,73.7,58.2,29.68,North,-999,-999.0,-999.0,56,-99.99,,,-99.99,,2013-09-04 01:59:00,
2013-09-03 22:04:00,73.5,58.2,29.68,North,-999,-999.0,-999.0,57,-99.99,,,-99.99,,2013-09-04 02:04:00,
2013-09-03 22:09:00,73.2,58.3,29.68,North,-999,-999.0,-999.0,58,-99.99,,,-99.99,,2013-09-04 02:09:00,
2013-09-03 22:14:00,73.0,58.2,29.68,North,-999,-999.0,-999.0,58,-99.99,,,-99.99,,2013-09-04 02:14:00,
2013-09-03 22:19:00,72.8,58.1,29.68,North,-999,-999.0,-999.0,58,-99.99,,,-99.99,,2013-09-04 02:19:00,
2013-09-03 22:24:00,72.6,58.0,29.69,North,-999,-999.0,-999.0,59,-99.99,,,-99.99,,2013-09-04 02:24:00,
2013-09-03 22:29:00,72.3,57.7,29.69,North,-999,-999.0,-999.0,59,-99.99,,,-99.99,,2013-09-04 02:29:00,
2013-09-03 22:34:00,72.3,57.8,29.69,North,-999,-999.0,-999.0,59,-99.99,,,-99.99,,2013-09-04 02:34:00,
2013-09-03 22:40:00,72.1,57.7,29.69,North,-999,-999.0,-999.0,60,-99.99,,,-99.99,,2013-09-04 02:40:00,
2013-09-03 22:45:00,71.9,57.6,29.69,North,-999,-999.0,-999.0,60,-99.99,,,-99.99,,2013-09-04 02:45:00,
2013-09-03 22:50:00,71.9,57.7,29.69,North,-999,-999.0,-999.0,60,-99.99,,,-99.99,,2013-09-04 02:50:00,
2013-09-03 22:55:00,71.7,57.6,29.70,North,-999,-999.0,-999.0,60,-99.99,,,-99.99,,2013-09-04 02:55:00,
2013-09-03 23:00:00,71.4,57.5,29.70,North,-999,-999.0,-999.0,61,-99.99,,,-99.99,,2013-09-04 03:00:00,
2013-09-03 23:05:00,71.2,57.4,29.70,North,-999,-999.0,-999.0,61,-99.99,,,-99.99,,2013-09-04 03:05:00,
2013-09-03 23:10:00,71.2,57.4,29.70,North,-999,-999.0,-999.0,61,-99.99,,,-99.99,,2013-09-04 03:10:00,
2013-09-03 23:15:00,71.0,57.4,29.70,North,-999,-999.0,-999.0,62,-99.99,,,-99.99,,2013-09-04 03:15:00,
2013-09-03 23:20:00,71.0,57.3,29.71,North,-999,-999.0,-999.0,61,-99.99,,,-99.99,,2013-09-04 03:20:00,
2013-09-03 23:25:00,70.7,57.1,29.71,North,-999,-999.0,-999.0,62,-99.99,,,-99.99,,2013-09-04 03:25:00,
2013-09-03 23:30:00,70.5,56.9,29.71,North,-999,-999.0,-999.0,62,-99.99,,,-99.99,,2013-09-04 03:30:00,
2013-09-03 23:35:00,70.3,56.9,29.71,North,-999,-999.0,-999.0,62,-99.99,,,-99.99,,2013-09-04 03:35:00,
2013-09-03 23:40:00,70.1,56.8,29.71,North,-999,-999.0,-999.0,63,-99.99,,,-99.99,,2013-09-04 03:40:00,
2013-09-03 23:45:00,70.1,57.2,29.71,North,-999,-999.0,-999.0,64,-99.99,,,-99.99,,2013-09-04 03:45:00,
2013-09-03 23:50:00,69.9,57.2,29.72,North,-999,-999.0,-999.0,64,-99.99,,,-99.99,,2013-09-04 03:50:00,
2013-09-03 23:55:00,69.8,57.1,29.72,North,-999,-999.0,-999.0,64,-99.99,,,-99.99,,2013-09-04 03:55:00,